Location: ??????
(38.3184°N, 23.6932°E)
Time: 09:16:13
(UTC+00:00)

BlueWalker 3 - Visible Passes

Search period start: 28 November 2022 00:00
Search period end: 08 December 2022 00:00
Orbit: 500 x 519 km, 53.2° (Epoch: 27 November)

Date Brightness Start Highest point End Pass type
(mag) Time Alt. Az. Time Alt. Az. Time Alt. Az.
28 Nov 3.9 15:35:33 10° W 15:38:39 22° NNW 15:41:44 10° NNE visible
04 Dec 4.7 17:06:44 10° NNW 17:06:46 10° NNW 17:06:46 10° NNW visible
05 Dec 4.3 16:48:17 10° NNW 16:49:12 13° N 16:49:12 13° N visible
06 Dec 4.0 16:29:50 10° NNW 16:31:43 15° NNE 16:31:43 15° NNE visible
07 Dec 3.8 16:11:22 10° NNW 16:13:47 15° NNE 16:14:18 15° NNE visible
